"startDT [UTC]","vpos","CH4 [ppm]","stdev(CH4) [ppm]","CO2 [ppm]","stdev(CO2) [ppm]","H2O [ppm]","stdev(H2O)","p_LGR [torr]","T_LGR [C]","mt1_LGR [us]","mt2_LGR [us]","T_ECpre [C]","T_EC1 [C]","T_EC2 [C]","p_inlet [hPa]","p_in [hPa]","p_out [hPa]","T_inlet [C]","RH_inlet [%]","dwpt_inlet [C]","T_vent [C]","RH_vent [%]","dwpt_vent [C]","flow_vent [l min-1]","flow_inlet [l min-1]","dwpt_sample [C]","T_room [C]"
2012-09-22 00:00:00,0.0,1.9333,0.0009,401.03,0.26,256.6,29.3,138.05,31.00,24.65,36.50,0.97,-25.90,9.88,-47,41,-931,23.4,22.5,0.7,23.6,1.9,-28.9,5.73,2.58,-27.3,28.9
2012-09-22 00:01:00,0.0,1.9339,0.0012,401.11,0.32,244.8,34.9,138.05,31.00,24.65,36.50,0.98,-25.92,7.62,-47,41,-931,23.4,22.5,0.8,23.6,1.9,-28.9,5.73,2.59,-27.3,28.9
2012-09-22 00:02:00,0.0,1.9338,0.0008,400.94,0.34,241.8,26.9,138.05,31.01,24.65,36.51,1.08,-25.92,5.46,-47,41,-932,23.4,22.5,0.7,23.6,1.9,-28.9,5.73,2.59,-27.3,28.8
2012-09-22 00:03:00,0.0,1.9342,0.0010,401.09,0.24,241.2,35.4,138.05,31.01,24.65,36.51,1.04,-25.93,3.41,-47,41,-932,23.4,22.5,0.7,23.6,1.9,-28.9,5.73,2.57,-27.3,28.8
2012-09-22 00:04:00,0.0,1.9344,0.0010,401.07,0.32,241.7,34.4,138.05,31.01,24.65,36.51,0.96,-25.93,1.46,-47,41,-931,23.4,22.5,0.8,23.6,1.9,-29.0,5.73,2.56,-27.3,28.8
2012-09-22 00:05:00,0.0,1.9343,0.0009,401.10,0.31,246.0,33.3,138.05,31.01,24.65,36.50,1.05,-25.94,-0.37,-47,41,-932,23.4,22.6,0.8,23.6,1.9,-28.9,5.73,2.58,-27.3,28.8
2012-09-22 00:06:00,0.0,1.9336,0.0008,401.03,0.27,244.4,30.0,138.05,31.02,24.65,36.51,1.07,-25.94,-2.05,-46,41,-932,23.3,22.6,0.8,23.6,1.9,-28.9,5.73,2.59,-27.3,28.7
2012-09-22 00:07:00,0.0,1.9333,0.0008,401.04,0.28,236.0,31.7,138.06,31.02,24.66,36.51,0.96,-25.95,-3.33,-47,41,-931,23.3,22.6,0.8,23.6,1.9,-28.9,5.73,2.59,-27.3,28.8
2012-09-22 00:08:00,0.0,1.9327,0.0009,401.05,0.31,242.6,31.0,138.05,31.02,24.66,36.50,1.01,-25.95,-4.75,-47,41,-931,23.3,22.6,0.8,23.6,1.9,-28.8,5.73,2.58,-27.3,28.8
2012-09-22 00:09:00,0.0,1.9332,0.0007,401.05,0.29,240.2,30.3,138.06,31.02,24.65,36.51,1.08,-25.96,-6.12,-47,41,-932,23.3,22.6,0.8,23.6,1.9,-28.9,5.73,2.56,-27.4,28.7
2012-09-22 00:10:00,0.0,1.9335,0.0008,400.98,0.31,242.1,35.8,138.05,31.02,24.65,36.51,0.99,-25.97,-7.44,-46,41,-932,23.4,22.6,0.8,23.6,1.9,-29.1,5.73,2.57,-27.4,28.7
2012-09-22 00:11:00,0.0,1.9330,0.0009,401.14,0.25,235.4,32.1,138.05,31.02,24.65,36.50,0.96,-25.97,-8.69,-47,41,-931,23.3,22.6,0.8,23.6,1.9,-29.2,5.73,2.58,-27.4,28.7
2012-09-22 00:12:00,0.0,1.9330,0.0006,401.20,0.29,239.5,28.3,138.05,31.02,24.66,36.50,1.06,-25.97,-9.80,-47,41,-932,23.3,22.6,0.8,23.5,1.9,-29.1,5.73,2.59,-27.4,28.7
2012-09-22 00:13:00,0.0,1.9332,0.0008,401.09,0.28,238.3,34.4,138.05,31.03,24.65,36.50,1.05,-25.99,-10.95,-46,41,-932,23.3,22.6,0.8,23.6,1.9,-29.1,5.73,2.58,-27.4,28.7
2012-09-22 00:14:00,0.0,1.9330,0.0008,401.13,0.33,234.2,34.1,138.05,31.03,24.66,36.51,0.95,-25.99,-12.02,-46,41,-931,23.3,22.6,0.8,23.5,1.9,-29.1,5.73,2.56,-27.4,28.6
2012-09-22 00:15:00,0.0,1.9328,0.0009,401.18,0.26,238.5,35.7,138.05,31.03,24.66,36.50,0.99,-26.00,-13.00,-47,41,-931,23.3,22.6,0.8,23.5,1.9,-29.1,5.73,2.57,-27.4,28.7
2012-09-22 00:16:00,0.0,1.9336,0.0009,401.09,0.26,233.1,29.8,138.05,31.04,24.65,36.50,1.06,-26.01,-13.93,-47,41,-932,23.3,22.6,0.8,23.6,1.9,-29.1,5.73,2.59,-27.4,28.7
2012-09-22 00:17:00,0.0,1.9330,0.0007,401.22,0.30,225.5,28.7,138.05,31.04,24.66,36.50,1.04,-26.03,-14.88,-47,41,-931,23.3,22.6,0.8,23.5,1.9,-29.2,5.73,2.59,-27.4,28.7
2012-09-22 00:18:00,0.0,1.9331,0.0010,401.15,0.28,236.3,27.0,138.06,31.04,24.65,36.51,0.95,-26.03,-15.76,-46,41,-931,23.3,22.6,0.8,23.6,1.9,-29.1,5.73,2.58,-27.5,28.7
2012-09-22 00:19:00,0.0,1.9334,0.0009,401.16,0.34,228.7,27.1,138.06,31.04,24.65,36.50,1.00,-26.05,-16.56,-47,41,-932,23.3,22.6,0.8,23.6,1.9,-29.1,5.73,2.56,-27.5,28.7
2012-09-22 00:20:00,0.0,1.9332,0.0009,401.11,0.28,233.3,34.9,138.06,31.04,24.65,36.50,1.06,-26.06,-17.24,-47,41,-931,23.3,22.6,0.8,23.5,1.9,-29.1,5.73,2.56,-27.5,28.7
2012-09-22 00:21:00,0.0,1.9337,0.0009,401.30,0.30,235.3,31.0,138.06,31.04,24.65,36.50,1.02,-26.07,-17.96,-47,41,-931,23.3,22.6,0.8,23.6,1.9,-29.0,5.73,2.58,-27.5,28.7
2012-09-22 00:22:00,0.0,1.9340,0.0009,401.19,0.28,234.5,31.0,138.06,31.04,24.65,36.50,0.95,-26.08,-18.67,-46,41,-932,23.3,22.6,0.8,23.5,1.9,-29.1,5.73,2.60,-27.5,28.7
2012-09-22 00:23:00,0.0,1.9341,0.0009,401.22,0.30,230.2,30.7,138.06,31.04,24.66,36.50,1.00,-26.10,-19.33,-47,42,-932,23.4,22.7,0.9,23.5,1.9,-29.1,5.73,2.57,-27.5,28.7
2012-09-22 00:24:00,0.0,1.9346,0.0008,401.25,0.27,228.8,29.6,138.06,31.04,24.65,36.50,1.05,-26.11,-19.95,-47,41,-931,23.3,22.7,0.8,23.6,1.9,-29.2,5.73,2.56,-27.5,28.7
2012-09-22 00:25:00,0.0,1.9349,0.0008,401.20,0.29,232.0,31.2,138.06,31.04,24.65,36.50,1.02,-26.12,-20.53,-47,41,-931,23.3,22.7,0.9,23.6,1.9,-29.2,5.73,2.57,-27.5,28.7
2012-09-22 00:26:00,0.0,1.9349,0.0009,401.13,0.25,230.7,32.8,138.06,31.04,24.66,36.50,0.95,-26.14,-21.08,-47,41,-932,23.3,22.7,0.9,23.5,1.9,-29.3,5.73,2.58,-27.6,28.7
2012-09-22 00:27:00,0.0,1.9356,0.0009,401.13,0.29,226.5,33.0,138.06,31.04,24.65,36.50,0.98,-26.15,-21.61,-47,42,-931,23.3,22.7,0.8,23.5,1.9,-29.2,5.73,2.59,-27.6,28.7
2012-09-22 00:28:00,0.0,1.9359,0.0012,401.23,0.29,234.4,33.6,138.06,31.04,24.65,36.50,1.04,-26.15,-22.09,-47,42,-931,23.3,22.7,0.9,23.5,1.9,-29.2,5.73,2.58,-27.6,28.7
2012-09-22 00:29:00,0.0,1.9363,0.0009,401.23,0.26,229.8,32.7,138.06,31.04,24.65,36.50,1.04,-26.17,-22.56,-47,42,-932,23.4,22.7,0.9,23.5,1.9,-29.2,5.73,2.56,-27.6,28.7
2012-09-22 00:30:00,0.0,1.9364,0.0009,401.22,0.26,227.2,29.1,138.06,31.04,24.66,36.50,0.97,-26.18,-22.99,-47,41,-931,23.4,22.7,0.9,23.5,1.9,-29.3,5.73,2.57,-27.6,28.7
2012-09-22 00:31:00,0.0,1.9368,0.0008,401.19,0.25,223.5,27.2,138.06,31.04,24.65,36.50,0.98,-26.19,-23.40,-47,42,-931,23.4,22.7,0.9,23.6,1.9,-29.3,5.73,2.59,-27.6,28.7
2012-09-22 00:32:00,0.0,1.9367,0.0009,401.19,0.24,224.5,30.6,138.06,31.04,24.66,36.50,1.03,-26.20,-23.77,-47,42,-932,23.4,22.7,0.9,23.5,1.9,-29.3,5.73,2.59,-27.7,28.7
2012-09-22 00:33:00,0.0,1.9365,0.0010,401.19,0.30,232.2,29.9,138.06,31.03,24.66,36.50,1.04,-26.21,-24.14,-47,42,-932,23.4,22.7,0.9,23.6,1.9,-29.3,5.73,2.57,-27.7,28.7
2012-09-22 00:34:00,0.0,1.9368,0.0010,401.17,0.29,233.2,31.6,138.06,31.04,24.65,36.50,0.98,-26.23,-24.49,-47,42,-931,23.4,22.7,0.9,23.6,1.9,-29.3,5.73,2.56,-27.7,28.8
2012-09-22 00:35:00,0.0,1.9367,0.0008,401.08,0.27,225.1,28.9,138.06,31.04,24.65,36.50,0.96,-26.23,-24.80,-47,42,-931,23.4,22.7,0.9,23.5,1.8,-29.5,5.73,2.57,-27.7,28.7
2012-09-22 00:36:00,0.0,1.9366,0.0010,401.21,0.31,225.3,32.6,138.06,31.04,24.66,36.50,1.01,-26.25,-25.11,-47,42,-932,23.4,22.7,0.9,23.5,1.8,-29.4,5.73,2.59,-27.7,28.7
2012-09-22 00:37:00,0.0,1.9372,0.0009,401.21,0.29,225.8,34.0,138.06,31.04,24.66,36.50,1.05,-26.26,-25.39,-47,42,-931,23.4,22.7,0.9,23.6,1.8,-29.4,5.73,2.59,-27.7,28.7
2012-09-22 00:38:00,0.0,1.9376,0.0008,401.23,0.29,226.9,33.7,138.06,31.04,24.66,36.51,1.01,-26.27,-25.66,-47,42,-931,23.4,22.8,0.9,23.5,1.8,-29.5,5.73,2.57,-27.7,28.7
2012-09-22 00:39:00,0.0,1.9377,0.0009,401.24,0.25,232.5,29.4,138.06,31.04,24.66,36.50,0.95,-26.28,-25.92,-47,42,-932,23.4,22.8,0.9,23.6,1.8,-29.4,5.73,2.56,-27.7,28.7
2012-09-22 00:40:00,0.0,1.9378,0.0008,401.23,0.26,225.0,26.1,138.06,31.04,24.66,36.51,0.98,-26.29,-26.16,-47,42,-932,23.4,22.8,1.0,23.5,1.9,-29.2,5.73,2.59,-27.7,28.7
2012-09-22 00:41:00,0.0,1.9383,0.0008,401.27,0.30,222.1,32.4,138.06,31.03,24.65,36.50,0.95,-26.29,-26.26,-47,42,-931,23.4,22.7,1.0,23.6,1.8,-29.4,5.73,2.59,-27.7,28.7
2012-09-22 00:42:00,0.0,1.9381,0.0009,401.34,0.29,225.0,31.0,138.06,31.03,24.65,36.50,1.02,-26.31,-26.04,-47,42,-931,23.4,22.7,0.9,23.6,1.8,-29.5,5.73,2.58,-27.7,28.7
2012-09-22 00:43:00,0.0,1.9383,0.0011,401.31,0.29,220.1,31.3,138.06,31.03,24.66,36.50,1.06,-26.32,-26.17,-46,42,-932,23.4,22.7,0.9,23.6,1.8,-29.4,5.73,2.56,-27.8,28.8
2012-09-22 00:44:00,0.0,1.9386,0.0008,401.33,0.28,220.9,28.8,138.06,31.03,24.66,36.50,0.95,-26.33,-26.32,-46,42,-931,23.4,22.7,0.9,23.5,1.8,-29.4,5.73,2.57,-27.8,28.8
2012-09-22 00:45:00,0.0,1.9387,0.0009,401.42,0.27,220.0,31.5,138.06,31.03,24.65,36.50,0.95,-26.34,-26.07,-47,42,-931,23.5,22.7,0.9,23.5,1.8,-29.6,5.73,2.59,-27.8,28.8
2012-09-22 00:46:00,0.0,1.9386,0.0010,401.43,0.29,217.8,31.0,138.06,31.03,24.65,36.50,0.97,-26.34,-26.16,-47,42,-932,23.4,22.7,0.9,23.5,1.8,-29.4,5.73,2.59,-27.8,28.8
2012-09-22 00:47:00,0.0,1.9381,0.0009,401.38,0.31,218.2,26.7,138.06,31.03,24.66,36.50,1.01,-26.35,-26.35,-47,42,-932,23.4,22.7,0.9,23.5,1.8,-29.4,5.73,2.57,-27.9,28.8
2012-09-22 00:48:00,0.0,1.9386,0.0009,401.36,0.28,218.0,31.5,138.06,31.03,24.65,36.50,1.01,-26.36,-26.14,-47,42,-931,23.4,22.7,0.9,23.5,1.8,-29.4,5.73,2.56,-27.9,28.7
2012-09-22 00:49:00,0.0,1.9383,0.0010,401.46,0.35,218.4,32.4,138.06,31.03,24.66,36.50,1.03,-26.37,-26.15,-47,42,-931,23.4,22.8,0.9,23.5,1.8,-29.5,5.73,2.59,-27.8,28.6
2012-09-22 00:50:00,0.0,1.9385,0.0008,401.33,0.28,214.6,30.0,138.06,31.03,24.66,36.50,0.97,-26.37,-26.33,-47,42,-932,23.4,22.8,0.9,23.5,1.8,-29.8,5.73,2.60,-27.9,28.7
2012-09-22 00:51:00,0.0,1.9385,0.0008,401.54,0.28,214.3,34.8,138.06,31.03,24.66,36.49,1.01,-26.38,-26.24,-47,42,-932,23.3,22.8,0.9,23.5,1.8,-29.7,5.73,2.58,-27.9,28.7
2012-09-22 00:52:00,0.0,1.9386,0.0010,401.51,0.28,209.1,34.1,138.06,31.04,24.66,36.50,0.97,-26.39,-26.14,-47,42,-931,23.3,22.8,0.9,23.5,1.8,-29.6,5.73,2.57,-27.9,28.7
2012-09-22 00:53:00,0.0,1.9393,0.0008,401.54,0.32,215.5,30.8,138.06,31.04,24.65,36.50,1.01,-26.39,-26.30,-47,42,-931,23.3,22.9,0.9,23.5,1.8,-29.6,5.73,2.58,-27.9,28.7
2012-09-22 00:54:00,0.0,1.9396,0.0009,401.47,0.29,212.6,30.8,138.06,31.04,24.65,36.51,0.91,-26.40,-26.34,-47,42,-932,23.3,22.9,0.9,23.5,1.8,-29.6,5.73,2.60,-27.9,28.7
2012-09-22 00:55:00,0.0,1.9391,0.0009,401.57,0.31,214.0,26.7,138.06,31.04,24.66,36.50,0.91,-26.27,-26.15,-47,42,-931,23.3,22.9,0.9,23.5,1.8,-29.6,5.73,2.58,-27.9,28.7
2012-09-22 00:56:00,0.0,1.9402,0.0010,401.64,0.34,205.1,31.2,138.06,31.05,24.66,36.50,0.90,-24.95,-26.27,-47,42,-931,23.3,22.9,0.9,23.5,1.8,-29.7,5.73,2.57,-27.9,28.7
2012-09-22 00:57:00,0.0,1.9404,0.0008,401.64,0.31,225.7,32.8,138.06,31.05,24.66,36.50,0.93,-23.06,-26.41,-47,42,-932,23.3,22.8,0.9,23.5,1.8,-29.6,5.73,2.56,-27.6,28.7
2012-09-22 00:58:00,0.0,1.9403,0.0008,401.68,0.27,253.0,30.5,138.06,31.05,24.66,36.50,0.94,-21.13,-26.50,-47,42,-931,23.3,22.8,0.8,23.5,1.9,-29.2,5.73,2.58,-27.2,28.7
2012-09-22 00:59:00,0.0,1.9408,0.0009,401.60,0.31,274.5,32.2,138.06,31.05,24.65,36.50,0.94,-19.25,-26.56,-47,42,-931,23.3,22.8,0.9,23.5,2.0,-28.6,5.73,2.59,-26.9,28.7
2012-09-22 01:00:00,0.0,1.9407,0.0008,401.77,0.33,286.8,32.9,138.06,31.05,24.66,36.49,0.88,-17.47,-26.61,-47,42,-932,23.3,22.7,0.8,23.5,2.1,-28.1,5.73,2.59,-26.7,28.7
2012-09-22 01:01:00,0.0,1.9413,0.0008,401.73,0.30,290.2,32.5,138.06,31.05,24.65,36.50,0.85,-15.78,-26.64,-47,42,-931,23.3,22.7,0.8,23.4,2.1,-27.9,5.73,2.57,-26.7,28.7
2012-09-22 01:02:00,0.0,1.9417,0.0008,401.68,0.31,298.5,27.7,138.06,31.05,24.65,36.50,0.87,-14.18,-26.66,-46,42,-931,23.3,22.7,0.8,23.5,2.1,-27.8,5.73,2.57,-26.6,28.7
2012-09-22 01:03:00,0.0,1.9422,0.0009,401.75,0.25,293.4,29.0,138.06,31.05,24.65,36.50,0.88,-12.66,-26.68,-47,42,-932,23.3,22.8,0.8,23.5,2.1,-27.8,5.73,2.58,-26.6,28.7
2012-09-22 01:04:00,0.0,1.9417,0.0009,401.70,0.26,291.2,30.6,138.06,31.05,24.66,36.50,0.91,-11.23,-26.70,-47,42,-931,23.3,22.8,0.9,23.5,2.2,-27.8,5.73,2.59,-26.7,28.7
2012-09-22 01:05:00,0.0,1.9425,0.0007,401.83,0.27,290.8,37.3,138.06,31.05,24.65,36.50,0.92,-9.86,-26.70,-46,42,-932,23.2,22.8,0.8,23.4,2.1,-28.0,5.73,2.58,-26.7,28.8
2012-09-22 01:06:00,0.0,1.9418,0.0007,401.78,0.27,280.4,32.6,138.06,31.05,24.66,36.51,0.93,-8.56,-26.72,-46,42,-931,23.3,22.8,0.9,23.4,2.1,-28.2,5.73,2.57,-26.8,28.8
2012-09-22 01:07:00,0.0,1.9422,0.0008,401.86,0.28,273.7,32.5,138.06,31.05,24.66,36.50,0.95,-7.33,-26.72,-46,42,-931,23.3,22.8,0.9,23.4,2.1,-27.9,5.73,2.56,-26.8,28.8
2012-09-22 01:08:00,0.0,1.9423,0.0009,401.79,0.27,272.9,27.3,138.05,31.06,24.66,36.50,0.95,-6.16,-26.73,-46,42,-931,23.3,22.9,0.9,23.4,2.1,-28.2,5.73,2.57,-26.9,28.7
2012-09-22 01:09:00,0.0,1.9425,0.0009,401.83,0.29,266.8,29.4,138.05,31.06,24.65,36.50,0.91,-5.03,-26.73,-46,42,-931,23.2,22.9,0.9,23.4,2.0,-28.4,5.73,2.59,-27.0,28.7
2012-09-22 01:10:00,0.0,1.9426,0.0009,401.94,0.30,261.3,30.3,138.05,31.06,24.65,36.50,0.89,-3.98,-26.73,-46,42,-931,23.2,23.0,0.9,23.4,2.0,-28.5,5.73,2.60,-27.1,28.8
2012-09-22 01:11:00,0.0,1.9423,0.0008,401.97,0.25,263.8,29.9,138.05,31.07,24.65,36.49,0.89,-2.98,-26.74,-46,42,-932,23.2,23.0,0.9,23.4,2.0,-28.5,5.73,2.59,-27.1,28.7
2012-09-22 01:12:00,0.0,1.9420,0.0008,401.93,0.27,253.0,31.0,138.05,31.07,24.65,36.50,0.90,-2.02,-26.73,-46,42,-932,23.2,23.0,1.0,23.4,2.0,-28.6,5.73,2.57,-27.2,28.7
2012-09-22 01:13:00,0.0,1.9417,0.0007,401.97,0.33,248.7,31.5,138.05,31.08,24.65,36.50,0.90,-1.13,-26.73,-46,42,-931,23.2,23.1,1.0,23.4,2.0,-28.8,5.73,2.57,-27.2,28.6
2012-09-22 01:14:00,0.0,1.9419,0.0009,401.89,0.25,245.4,30.5,138.05,31.08,24.66,36.50,0.91,-0.27,-26.73,-46,42,-931,23.2,23.1,0.9,23.4,2.0,-28.8,5.73,2.59,-27.3,28.7
2012-09-22 01:15:00,0.0,1.9417,0.0009,401.86,0.33,236.6,29.2,138.05,31.09,24.65,36.50,0.92,0.53,-26.73,-46,42,-931,23.2,23.0,0.9,23.4,2.0,-28.9,5.73,2.60,-27.3,28.7
2012-09-22 01:16:00,0.0,1.9422,0.0008,401.92,0.30,240.0,31.2,138.05,31.09,24.65,36.50,0.93,1.30,-26.72,-46,42,-932,23.2,23.1,1.0,23.3,2.0,-28.9,5.73,2.58,-27.3,28.6
2012-09-22 01:17:00,0.0,1.9426,0.0011,401.87,0.25,238.7,28.9,138.05,31.09,24.65,36.50,0.94,2.00,-26.72,-46,42,-931,23.2,23.1,1.0,23.3,2.0,-28.9,5.73,2.57,-27.4,28.6
2012-09-22 01:18:00,0.0,1.9424,0.0009,401.88,0.29,235.0,33.7,138.05,31.09,24.65,36.49,0.93,2.59,-26.71,-46,42,-931,23.2,23.1,0.9,23.4,1.9,-29.1,5.73,2.57,-27.4,28.7
2012-09-22 01:19:00,0.0,1.9428,0.0009,401.83,0.33,234.9,28.9,138.05,31.10,24.66,36.50,0.93,2.86,-26.71,-46,42,-931,23.2,23.0,0.9,23.4,1.9,-29.2,5.73,2.59,-27.5,28.6
2012-09-22 01:20:00,0.0,1.9430,0.0008,401.79,0.34,232.2,27.9,138.05,31.10,24.65,36.50,0.94,3.04,-26.70,-46,42,-931,23.2,23.0,0.9,23.4,1.9,-29.0,5.73,2.59,-27.5,28.7
2012-09-22 01:21:00,0.0,1.9434,0.0008,401.86,0.32,229.7,33.3,138.05,31.10,24.65,36.50,0.95,3.38,-26.70,-46,42,-931,23.2,22.9,0.9,23.3,1.9,-29.2,5.73,2.58,-27.5,28.7
2012-09-22 01:22:00,0.0,1.9433,0.0009,401.77,0.29,222.5,32.6,138.05,31.10,24.65,36.51,0.95,3.77,-26.69,-46,42,-931,23.2,23.0,0.9,23.4,1.9,-29.2,5.73,2.57,-27.6,28.7
2012-09-22 01:23:00,0.0,1.9434,0.0007,401.95,0.30,225.5,29.0,138.05,31.11,24.65,36.49,0.94,4.24,-26.68,-46,42,-931,23.2,23.0,0.9,23.4,1.9,-29.3,5.73,2.56,-27.6,28.7
2012-09-22 01:24:00,0.0,1.9427,0.0010,401.69,0.24,224.5,29.6,138.05,31.11,24.66,36.50,0.92,4.71,-26.67,-46,42,-931,23.1,22.9,0.8,23.4,1.9,-29.3,5.73,2.58,-27.6,28.7
2012-09-22 01:25:00,0.0,1.9439,0.0009,401.70,0.30,221.5,33.4,138.05,31.11,24.65,36.51,0.90,5.16,-26.66,-46,42,-931,23.1,22.9,0.8,23.3,1.9,-29.4,5.73,2.59,-27.6,28.7
2012-09-22 01:26:00,0.0,1.9438,0.0010,401.80,0.26,220.0,29.8,138.05,31.12,24.65,36.50,0.93,5.56,-26.65,-46,42,-931,23.2,22.9,0.8,23.3,1.9,-29.4,5.73,2.59,-27.7,28.7
2012-09-22 01:27:00,0.0,1.9435,0.0009,401.81,0.29,205.8,30.6,138.05,31.12,24.65,36.50,0.91,6.00,-26.65,-46,42,-931,23.2,22.9,0.8,23.4,1.9,-29.3,5.73,2.58,-27.7,28.7
2012-09-22 01:28:00,0.0,1.9438,0.0010,401.68,0.29,210.0,35.6,138.05,31.12,24.65,36.50,0.91,6.45,-26.64,-46,42,-931,23.2,22.8,0.8,23.3,1.9,-29.5,5.73,2.57,-27.7,28.7
2012-09-22 01:29:00,0.0,1.9438,0.0008,401.71,0.27,216.1,28.1,138.05,31.12,24.65,36.50,0.91,6.86,-26.64,-46,42,-931,23.2,22.9,0.8,23.3,1.9,-29.3,5.73,2.56,-27.7,28.7
2012-09-22 01:30:00,0.0,1.9442,0.0008,401.74,0.31,214.6,25.0,138.05,31.12,24.66,36.50,0.90,7.35,-26.63,-46,42,-931,23.2,22.9,0.8,23.4,1.9,-29.4,5.73,2.58,-27.7,28.8
2012-09-22 01:31:00,0.0,1.9438,0.0009,401.63,0.34,216.9,28.5,138.05,31.12,24.66,36.50,0.93,7.78,-26.62,-46,42,-931,23.2,22.7,0.7,23.4,1.9,-29.3,5.73,2.59,-27.7,28.7
2012-09-22 01:32:00,0.0,1.9441,0.0010,401.54,0.27,214.5,29.9,138.05,31.12,24.65,36.50,0.93,8.18,-26.61,-46,42,-931,23.2,22.7,0.8,23.4,1.8,-29.5,5.73,2.58,-27.7,28.7
2012-09-22 01:33:00,0.0,1.9439,0.0009,401.55,0.28,214.2,28.3,138.05,31.12,24.66,36.50,0.92,8.56,-26.60,-46,42,-931,23.2,22.7,0.7,23.4,1.9,-29.5,5.73,2.57,-27.8,28.7
2012-09-22 01:34:00,0.0,1.9439,0.0009,401.60,0.33,219.3,28.1,138.05,31.12,24.65,36.49,0.90,8.94,-26.59,-46,42,-931,23.2,22.6,0.7,23.4,1.8,-29.6,5.73,2.56,-27.8,28.8
2012-09-22 01:35:00,0.0,1.9437,0.0011,401.46,0.29,212.6,30.9,138.05,31.12,24.65,36.50,0.93,9.29,-26.59,-46,42,-931,23.2,22.7,0.7,23.4,1.8,-29.5,5.73,2.56,-27.8,28.8
2012-09-22 01:36:00,0.0,1.9433,0.0009,401.51,0.28,216.6,33.4,138.05,31.12,24.66,36.50,0.93,9.64,-26.58,-46,42,-931,23.3,22.6,0.7,23.3,1.8,-29.7,5.73,2.57,-27.8,28.8
2012-09-22 01:37:00,0.0,1.9438,0.0011,401.41,0.32,208.7,28.2,138.05,31.12,24.65,36.50,0.92,9.97,-26.57,-46,42,-931,23.3,22.5,0.7,23.4,1.8,-29.6,5.73,2.58,-27.8,28.8
2012-09-22 01:38:00,0.0,1.9433,0.0009,401.30,0.29,210.8,30.8,138.05,31.12,24.66,36.50,0.93,10.30,-26.56,-46,42,-931,23.3,22.5,0.7,23.4,1.8,-29.6,5.73,2.58,-27.8,28.8
2012-09-22 01:39:00,0.0,1.9433,0.0008,401.32,0.30,218.9,26.3,138.05,31.12,24.66,36.51,0.93,10.61,-26.55,-46,42,-931,23.2,22.5,0.6,23.4,1.8,-29.5,5.73,2.57,-27.8,28.8
2012-09-22 01:40:00,0.0,1.9432,0.0010,401.38,0.28,210.1,33.9,138.05,31.13,24.65,36.50,0.94,10.91,-26.55,-46,41,-931,23.3,22.4,0.6,23.4,1.8,-29.5,5.73,2.56,-27.8,28.8
2012-09-22 01:41:00,0.0,1.9431,0.0010,401.46,0.26,208.5,32.1,138.05,31.13,24.66,36.49,0.93,11.21,-26.54,-46,42,-931,23.3,22.4,0.6,23.4,1.8,-29.6,5.73,2.56,-27.8,28.8
2012-09-22 01:42:00,0.0,1.9437,0.0009,401.44,0.25,203.9,28.5,138.05,31.13,24.65,36.50,0.93,11.48,-26.53,-46,42,-931,23.3,22.4,0.6,23.4,1.8,-29.6,5.73,2.56,-27.8,28.9
2012-09-22 01:43:00,0.0,1.9438,0.0009,401.44,0.34,208.9,28.3,138.05,31.14,24.66,36.50,0.93,11.75,-26.52,-46,42,-931,23.3,22.5,0.7,23.4,1.8,-29.5,5.73,2.57,-27.8,28.8
2012-09-22 01:44:00,0.0,1.9440,0.0010,401.47,0.30,209.4,31.2,138.05,31.13,24.65,36.50,0.93,12.01,-26.51,-46,42,-931,23.3,22.5,0.7,23.5,1.9,-29.4,5.73,2.59,-27.8,28.8
2012-09-22 01:45:00,0.0,1.9432,0.0009,401.36,0.34,212.7,33.0,138.05,31.13,24.66,36.50,0.93,12.27,-26.50,-46,41,-932,23.3,22.4,0.6,23.5,1.9,-29.4,5.73,2.57,-27.8,28.8
2012-09-22 01:46:00,0.0,1.9440,0.0009,401.43,0.30,210.4,35.8,138.06,31.13,24.65,36.49,0.94,12.50,-26.50,-46,42,-931,23.3,22.4,0.7,23.5,1.9,-29.4,5.73,2.56,-27.8,28.8
2012-09-22 01:47:00,0.0,1.9441,0.0010,401.55,0.28,212.1,31.1,138.06,31.13,24.65,36.49,0.94,12.74,-26.49,-46,41,-931,23.4,22.4,0.7,23.5,1.8,-29.6,5.73,2.57,-27.8,28.8
2012-09-22 01:48:00,0.0,1.9436,0.0008,401.44,0.25,205.8,31.5,138.06,31.13,24.66,36.50,0.93,12.96,-26.48,-46,41,-932,23.4,22.5,0.7,23.5,1.8,-29.5,5.73,2.57,-27.8,28.9
2012-09-22 01:49:00,0.0,1.9433,0.0009,401.41,0.32,207.9,34.2,138.05,31.13,24.65,36.50,0.94,13.17,-26.48,-46,41,-931,23.4,22.5,0.7,23.5,1.8,-29.4,5.73,2.58,-27.8,28.8
2012-09-22 01:50:00,0.0,1.9422,0.0010,401.45,0.23,209.8,30.5,138.05,31.13,24.65,36.50,0.93,13.38,-26.47,-46,41,-931,23.4,22.5,0.7,23.5,1.8,-29.5,5.73,2.58,-27.9,28.9
2012-09-22 01:51:00,0.0,1.9419,0.0008,401.40,0.30,210.8,33.4,138.05,31.13,24.66,36.51,0.94,13.57,-26.46,-46,41,-931,23.4,22.4,0.7,23.5,1.8,-29.5,5.73,2.57,-27.8,28.9
2012-09-22 01:52:00,0.0,1.9420,0.0008,401.48,0.28,216.7,33.3,138.05,31.13,24.66,36.50,0.94,13.76,-26.45,-46,42,-931,23.4,22.4,0.7,23.5,1.8,-29.5,5.73,2.56,-27.8,28.9
2012-09-22 01:53:00,0.0,1.9422,0.0008,401.42,0.32,205.8,31.7,138.05,31.13,24.66,36.50,0.93,13.95,-26.44,-46,41,-931,23.4,22.3,0.6,23.5,1.8,-29.5,5.73,2.55,-27.8,28.9
2012-09-22 01:54:00,0.0,1.9419,0.0009,401.45,0.28,206.6,25.2,138.05,31.14,24.66,36.50,0.94,14.12,-26.44,-46,41,-931,23.4,22.3,0.6,23.5,1.8,-29.4,5.73,2.56,-27.8,28.9
2012-09-22 01:55:00,0.0,1.9427,0.0009,401.49,0.30,211.9,25.7,138.05,31.14,24.65,36.50,0.94,14.29,-26.43,-46,41,-931,23.4,22.2,0.6,23.5,1.8,-29.4,5.73,2.57,-27.9,28.9
2012-09-22 01:56:00,0.0,1.9430,0.0009,401.41,0.27,208.6,28.5,138.05,31.14,24.65,36.50,0.93,14.45,-26.43,-46,41,-931,23.4,22.2,0.6,23.5,1.8,-29.6,5.73,2.58,-27.8,28.9
2012-09-22 01:57:00,0.0,1.9428,0.0009,401.35,0.30,213.4,34.1,138.05,31.14,24.65,36.50,0.94,14.60,-26.42,-46,41,-932,23.4,22.2,0.6,23.5,1.8,-29.5,5.73,2.57,-27.8,28.9
2012-09-22 01:58:00,0.0,1.9431,0.0009,401.42,0.32,208.6,33.8,138.05,31.14,24.65,36.50,0.94,14.75,-26.42,-46,41,-931,23.4,22.2,0.6,23.5,1.8,-29.5,5.73,2.57,-27.9,28.9
2012-09-22 01:59:00,0.0,1.9431,0.0008,401.32,0.35,204.4,32.5,138.05,31.15,24.66,36.50,0.92,14.90,-26.41,-46,41,-931,23.5,22.2,0.6,23.5,1.8,-29.5,5.73,2.56,-27.9,28.9
2012-09-22 02:00:00,0.0,1.9431,0.0008,401.47,0.37,209.8,35.8,138.05,31.15,24.66,36.50,0.93,15.03,-26.41,-46,41,-931,23.5,22.2,0.6,23.5,1.8,-29.7,5.73,2.56,-27.8,29.0
2012-09-22 02:01:00,0.0,1.9431,0.0009,401.48,0.29,209.7,35.1,138.05,31.15,24.65,36.50,0.94,15.16,-26.41,-46,41,-931,23.5,22.2,0.6,23.5,1.8,-29.6,5.73,2.57,-27.9,29.0
2012-09-22 02:02:00,0.0,1.9436,0.0008,401.48,0.37,203.0,27.2,138.05,31.15,24.65,36.50,0.93,15.29,-26.40,-46,41,-931,23.5,22.2,0.6,23.5,1.8,-29.7,5.73,2.58,-27.8,29.0
2012-09-22 02:03:00,0.0,1.9436,0.0009,401.58,0.32,205.5,29.0,138.05,31.15,24.65,36.49,0.93,15.40,-26.40,-46,41,-931,23.5,22.2,0.7,23.5,1.8,-29.5,5.73,2.58,-27.8,29.0
2012-09-22 02:04:00,0.0,1.9434,0.0008,401.46,0.30,208.1,26.7,138.05,31.15,24.65,36.49,0.93,15.52,-26.39,-46,41,-931,23.5,22.1,0.6,23.5,1.8,-29.6,5.73,2.57,-27.9,29.0
2012-09-22 02:05:00,0.0,1.9432,0.0009,401.50,0.31,209.2,31.1,138.05,31.15,24.66,36.50,0.92,15.62,-26.38,-46,41,-931,23.5,22.1,0.6,23.5,1.8,-29.5,5.73,2.56,-27.8,29.0
2012-09-22 02:06:00,0.0,1.9435,0.0008,401.52,0.27,209.7,28.5,138.05,31.16,24.65,36.49,0.93,15.73,-26.38,-46,41,-931,23.5,22.1,0.6,23.5,1.8,-29.6,5.73,2.56,-27.8,29.0
2012-09-22 02:07:00,0.0,1.9435,0.0009,401.44,0.28,212.4,32.7,138.05,31.16,24.66,36.50,0.91,15.83,-26.37,-46,41,-931,23.5,22.2,0.6,23.5,1.8,-29.6,5.73,2.56,-27.9,29.0
2012-09-22 02:08:00,0.0,1.9439,0.0008,401.46,0.31,204.5,33.2,138.05,31.16,24.66,36.49,0.93,15.92,-26.37,-46,41,-931,23.5,22.2,0.6,23.5,1.8,-29.6,5.73,2.57,-27.8,29.0
2012-09-22 02:09:00,0.0,1.9437,0.0010,401.36,0.24,205.3,30.3,138.05,31.16,24.66,36.50,0.93,16.01,-26.37,-46,41,-931,23.5,22.2,0.6,23.6,1.8,-29.6,5.73,2.58,-27.9,29.0
2012-09-22 02:10:00,0.0,1.9439,0.0012,401.31,0.29,203.6,31.5,138.05,31.16,24.65,36.50,0.93,16.10,-26.36,-47,41,-931,23.5,22.2,0.7,23.5,1.8,-29.5,5.73,2.57,-27.9,29.0
2012-09-22 02:11:00,0.0,1.9439,0.0008,401.44,0.30,204.6,27.7,138.05,31.16,24.66,36.50,0.92,16.19,-26.36,-47,41,-931,23.5,22.1,0.6,23.5,1.8,-29.6,5.73,2.56,-27.9,29.0
2012-09-22 02:12:00,0.0,1.9441,0.0009,401.42,0.28,202.4,26.9,138.05,31.16,24.65,36.50,0.93,16.27,-26.36,-46,41,-931,23.5,22.1,0.6,23.6,1.8,-29.6,5.73,2.56,-27.9,29.0
2012-09-22 02:13:00,0.0,1.9440,0.0009,401.28,0.25,202.2,24.4,138.05,31.16,24.66,36.50,0.94,16.35,-26.35,-46,41,-931,23.5,22.1,0.6,23.6,1.8,-29.6,5.73,2.56,-27.9,29.0
2012-09-22 02:14:00,0.0,1.9441,0.0009,401.40,0.26,209.8,33.6,138.05,31.16,24.65,36.50,0.94,16.42,-26.35,-46,41,-931,23.5,22.0,0.6,23.6,1.8,-29.6,5.73,2.57,-27.9,29.0
2012-09-22 02:15:00,0.0,1.9444,0.0009,401.39,0.30,205.7,26.6,138.05,31.16,24.65,36.50,0.94,16.49,-26.35,-46,41,-931,23.5,22.1,0.7,23.6,1.8,-29.5,5.73,2.58,-27.9,29.0
2012-09-22 02:16:00,0.0,1.9445,0.0008,401.44,0.32,206.1,27.6,138.05,31.16,24.66,36.49,0.93,16.56,-26.34,-46,41,-931,23.6,22.1,0.7,23.6,1.8,-29.5,5.73,2.58,-27.9,29.1
2012-09-22 02:17:00,0.0,1.9449,0.0008,401.45,0.28,212.9,33.8,138.06,31.16,24.65,36.50,0.95,16.62,-26.34,-46,41,-931,23.6,22.1,0.7,23.6,1.8,-29.6,5.73,2.57,-27.9,29.1
2012-09-22 02:18:00,0.0,1.9448,0.0009,401.45,0.31,206.9,32.9,138.06,31.16,24.66,36.50,0.92,16.68,-26.33,-46,41,-931,23.6,22.2,0.7,23.6,1.8,-29.5,5.73,2.56,-27.9,29.1
2012-09-22 02:19:00,0.0,1.9450,0.0009,401.55,0.31,203.4,29.6,138.05,31.16,24.65,36.49,0.95,16.75,-26.33,-47,41,-932,23.6,22.2,0.7,23.6,1.8,-29.5,5.73,2.56,-27.9,29.0
2012-09-22 02:20:00,0.0,1.9447,0.0010,401.46,0.27,209.8,29.0,138.06,31.16,24.65,36.50,0.94,16.80,-26.33,-47,41,-931,23.6,22.2,0.7,23.6,1.8,-29.5,5.73,2.57,-27.9,29.1